Content
SEND FEEDBACK

Daily
Averages
Monthly
Summary
United States of America

ASHTON, IDAHO


Home > North America > United States > Idaho
Elevation: 5223 feet     Latitude: 44 05N     Longitude: 111 27W

WEATHER
 
SELECT A DAY
Number of Records: 167,930;   Date Range: 8/13/98 - 10/22/14
 
SHARE

PRINT THIS DATA

[ ← Previous Day ]
WEATHER ALMANAC - NOVEMBER 12, 2013
[ Next Day → ]
[ °C ]   °F
Weather ElementAverageHighLow
Temperature40.3 °F61 °F (2:53 pm)24.1 °F (4:53 am)
Dewpoint26.4 °F30 °F (10:53 am)21 °F (4:53 am)
Humidity62.5 %88 % (1:53 am)26 % (2:53 pm)
Barometer30.47 in30.58 in (7:53 am)30.36 in (11:53 pm)
Wind Speed3.5 mph8.1 mph (2:53 am)
Weather ElementAverage
Visibility10 mi
Wind DirectionNNE (32.6 °)

Weather ElementTotal
Precipitation---
Heating Degree Days22.5 (Base 65)
Averaged from 23 records on November 12, 2013
WEATHER CONDITIONS BREAKOUT
WIND DIRECTION BREAKOUT
WEATHER BY HOUR - NOVEMBER 12, 2013
[ °C ]   °F
Local TimeTemperatureDewpointHumidityBarometerVisibilityWind DirectionWind SpeedGust SpeedPrecipitationEventsConditions
1:53 AM28.0 °F25.0 °F88 %30.50 in10.0 miENE (60°)5.8 mphClear
2:53 AM28.0 °F24.1 °F85 %30.50 in10.0 miNE (50°)8.1 mphClear
3:53 AM28.0 °F24.1 °F85 %30.51 in10.0 miENE (60°)3.5 mphClear
4:53 AM24.1 °F21.0 °F88 %30.55 in10.0 miCalmClear
5:53 AM27.0 °F23.0 °F85 %30.55 in10.0 miNE (50°)4.6 mphClear
6:53 AM26.1 °F21.0 °F81 %30.57 in10.0 miEast (90°)3.5 mphClear
7:53 AM27.0 °F21.9 °F81 %30.58 in10.0 miENE (70°)5.8 mphClear
8:53 AM32.0 °F25.0 °F75 %30.58 in10.0 miENE (70°)3.5 mphClear
9:53 AM39.9 °F28.9 °F65 %30.55 in10.0 miNorth (10°)3.5 mphClear
10:53 AM46.0 °F30.0 °F54 %30.53 in10.0 miNE (40°)3.5 mphClear
11:53 AM52.0 °F28.0 °F40 %30.49 in10.0 miNNE (30°)5.8 mphClear
12:53 PM55.9 °F28.0 °F34 %30.45 in10.0 miNNE (30°)4.6 mphClear
1:53 PM59.0 °F27.0 °F29 %30.41 in10.0 miCalmClear
2:53 PM61.0 °F26.1 °F26 %30.39 in10.0 miNNE (30°)4.6 mphClear
3:53 PM59.0 °F25.0 °F27 %30.38 in10.0 miNorth (10°)3.5 mphClear
4:53 PM54.0 °F28.0 °F37 %30.39 in10.0 miCalmClear
5:53 PM48.0 °F28.9 °F48 %30.40 in10.0 miCalmClear
6:53 PM43.0 °F28.9 °F58 %30.41 in10.0 miCalmClear
7:53 PM39.9 °F30.0 °F68 %30.43 in10.0 miCalmClear
8:53 PM37.9 °F28.9 °F70 %30.41 in9.0 miNorth (10°)4.6 mphClear
9:53 PM37.0 °F28.0 °F70 %30.39 in10.0 miNNE (20°)3.5 mphClear
10:53 PM37.0 °F27.0 °F67 %30.37 in10.0 miENE (60°)6.9 mphClear
11:53 PM36.0 °F28.9 °F76 %30.36 in10.0 miENE (60°)4.6 mphClear
Hourly data recorded from KRXE, located miles away from Ashton, Idaho







STORIES FROM OUR PARTNERS